Weather History for FBMN - November, 2012

Change the Weather History Date:

Monday, November 19, 2012

  Actual Average Record
Temperature  
Mean Temperature 82 °F -  
Max Temperature 93 °F 90 °F - ()
Min Temperature 70 °F 69 °F - ()
Cooling Degree Days 16    
Growing Degree Days 32 (Base 50)    
Moisture  
Dew Point 64 °F    
Average Humidity 52    
Maximum Humidity 78    
Minimum Humidity 25    
Precipitation  
Precipitation 0.00 in - - ()
Sea Level Pressure  
Sea Level Pressure 29.99 in    
Wind  
Wind Speed 4 mph ()    
Max Wind Speed 9 mph    
Max Gust Speed -    
Visibility 6.2 miles    
Events      
T = Trace of Precipitation, MM = Missing Value Source: Averaged Metar Reports

Daily Weather History Graph

Daily Weather History Graph

Search for Another Location

Airport or City:

Trip Planner

Search our weather history database for the weather conditions in past years. The results will help you decide how hot, cold, wet, or windy it might be!

Date:

Astronomy

Nov. 19, 2012 Rise Set
Actual Time 5:38 AM CAT 6:45 PM CAT
Civil Twilight 5:14 AM CAT 7:09 PM CAT
Nautical Twilight 4:46 AM CAT 7:37 PM CAT
Astronomical Twilight 4:17 AM CAT 8:06 PM CAT
Moon 11:06 AM CAT (11/19) No Moon Set
Length of Visible Light 13h 54m
Length of Day
13h 07m
Waxing Crescent, 37% of the Moon is Illuminated
Nov 19
Waxing Crescent
Nov 20
First Quarter
Nov 28
Full
Dec 6
Last Quarter
Dec 13
New

Hourly Weather History & Observations

Time (CAT) Temp. Heat Index Dew Point Humidity Pressure Visibility Wind Dir Wind Speed Gust Speed Precip Events Conditions
12:00 AM 78.8 °F - 62.6 °F 57% 30.01 in 6.2 mi East 6.9 mph - N/A   Scattered Clouds
1:00 AM 77.0 °F - 62.6 °F 61% 30.01 in - East 9.2 mph - N/A   Clear
2:00 AM 77.0 °F - 64.4 °F 65% 30.01 in - WNW 3.5 mph - N/A   Clear
3:00 AM 75.2 °F - 64.4 °F 69% 29.98 in - NW 3.5 mph - N/A   Clear
4:00 AM 73.4 °F - 64.4 °F 73% 29.98 in - Variable 2.3 mph - N/A   Clear
5:00 AM 73.4 °F - 66.2 °F 78% 29.98 in - Variable 2.3 mph - N/A   Clear
6:00 AM 73.4 °F - 64.4 °F 73% 29.98 in - Variable 2.3 mph - N/A   Clear
7:00 AM 73.4 °F - 64.4 °F 73% 30.01 in - Variable 2.3 mph - N/A   Clear
8:00 AM 79 °F - 64 °F 52%  in 6 mi NNE 6.9 mph - -   Scattered Clouds
8:00 AM 78.8 °F - 64.4 °F 61% 30.01 in - NNE 6.9 mph - N/A   Clear
9:00 AM 82.4 °F 84.6 °F 66.2 °F 58% 30.04 in - ENE 5.8 mph - N/A   Clear
10:00 AM 84.2 °F 86.6 °F 66.2 °F 55% 30.06 in - NE 5.8 mph - N/A   Clear
11:00 AM 86.0 °F 88.2 °F 66.2 °F 51% 30.04 in - NE 8.1 mph - N/A   Clear
12:00 PM 89.6 °F 91.1 °F 64.4 °F 43% 30.04 in - NW 3.5 mph - N/A   Clear
1:00 PM 91.4 °F 92.1 °F 62.6 °F 38% 30.01 in - North 4.6 mph - N/A   Clear
2:00 PM 93 °F - 61 °F 25%  in 6 mi North 5.8 mph - -   Scattered Clouds
2:00 PM 93.2 °F 92.6 °F 59.0 °F 32% 29.98 in 6.2 mi North 5.8 mph - N/A   Partly Cloudy
3:00 PM 93.2 °F 94.1 °F 62.6 °F 36% 29.95 in 6.2 mi NW 5.8 mph - N/A   Scattered Clouds
4:00 PM 95.0 °F 96.0 °F 62.6 °F 34% 29.95 in 6.2 mi NNW 3.5 mph - N/A   Scattered Clouds
5:00 PM 93.2 °F 94.1 °F 62.6 °F 36% 29.92 in 6.2 mi West 5.8 mph - N/A   Scattered Clouds
6:00 PM 93.2 °F 94.1 °F 62.6 °F 36% 29.92 in 6.2 mi West 5.8 mph - N/A   Scattered Clouds
8:00 PM 87 °F - 66 °F 39%  in 6 mi WSW 1.2 mph - -   Scattered Clouds
8:00 PM 86.0 °F 88.2 °F 66.2 °F 51% 29.95 in 6.2 mi Variable 1.2 mph - N/A   Scattered Clouds
9:00 PM 86.0 °F 87.3 °F 64.4 °F 48% 29.98 in 6.2 mi Variable 2.3 mph - N/A   Scattered Clouds
10:00 PM 84.2 °F 85.6 °F 64.4 °F 51% 29.98 in 6.2 mi Variable 2.3 mph - N/A   Scattered Clouds
11:00 PM 82.4 °F 84.6 °F 66.2 °F 58% 29.98 in 6.2 mi Variable 2.3 mph - N/A   Scattered Clouds